Weather History for Richmond, KY

Change the Weather History Date:

Tuesday, March 11, 2014

  Actual Average (KLOZ) Record (KLOZ)
Temperature  
Mean Temperature 60 °F 46 °F  
Max Temperature 73 °F 57 °F 79 °F (1990)
Min Temperature 48 °F 35 °F 18 °F (1965)
Degree Days  
Heating Degree Days 4 19  
Month to date heating degree days 225  
Since 1 July heating degree days 3501  
Cooling Degree Days 0 0  
Month to date cooling degree days 0  
Year to date cooling degree days 0  
Growing Degree Days 10 (Base 50)    
Moisture  
Dew Point 38 °F    
Average Humidity 47    
Maximum Humidity 71    
Minimum Humidity 23    
Precipitation  
Precipitation 0.00 in 0.12 in 4.21 in (1963)
Month to date precipitation 1.44  
Year to date precipitation 8.69  
Sea Level Pressure  
Sea Level Pressure 29.74 in    
Wind  
Wind Speed 8 mph (SSW)    
Max Wind Speed 17 mph    
Max Gust Speed 21 mph    
Visibility 10 miles    
Events      
T = Trace of Precipitation, MM = Missing Value Source: NWS Daily Summary

Daily Weather History Graph

Daily Weather History Graph

Search for Another Location

Airport:

Trip Planner

Search our weather history database for the weather conditions in past years. The results will help you decide how hot, cold, wet, or windy it might be!

Date:

Astronomy

Mar. 11, 2014 Rise Set
Actual Time 7:54 AM EDT 7:40 PM EDT
Civil Twilight 7:28 AM EDT 8:06 PM EDT
Nautical Twilight 6:57 AM EDT 8:37 PM EDT
Astronomical Twilight 6:27 AM EDT 9:07 PM EDT
Moon 3:20 PM EDT (3/11) 4:43 AM EDT (3/11)
Length of Visible Light 12h 38m
Length of Day
11h 46m
Waxing Gibbous, 78% of the Moon is Illuminated
Mar 11
Waxing Gibbous
Mar 16
Full
Mar 23
Last Quarter
Mar 30
New
Apr 7
First Quarter

Hourly Weather History & Observations

Time (EDT) Temp. Dew Point Humidity Pressure Visibility Wind Dir Wind Speed Gust Speed Precip Events Conditions
12:20 AM 53.6 °F 35.6 °F 51% 29.83 in 10.0 mi SSW 6.9 mph - N/A   Clear
12:35 AM 53.6 °F 35.6 °F 51% 29.83 in 10.0 mi SW 5.8 mph - N/A   Clear
12:55 AM 53.6 °F 35.6 °F 51% 29.83 in 10.0 mi SW 4.6 mph - N/A   Clear
1:15 AM 51.8 °F 35.6 °F 54% 29.82 in 10.0 mi SSW 6.9 mph - N/A   Clear
1:35 AM 51.8 °F 37.4 °F 58% 29.82 in 10.0 mi SSW 6.9 mph - N/A   Clear
1:55 AM 51.8 °F 37.4 °F 58% 29.82 in 10.0 mi SSW 6.9 mph - N/A   Clear
2:15 AM 51.8 °F 37.4 °F 58% 29.82 in 10.0 mi SSW 9.2 mph - N/A   Clear
2:35 AM 51.8 °F 37.4 °F 58% 29.82 in 10.0 mi SSW 9.2 mph - N/A   Clear
2:55 AM 51.8 °F 37.4 °F 58% 29.82 in 10.0 mi SSW 9.2 mph - N/A   Clear
3:15 AM 51.8 °F 37.4 °F 58% 29.82 in 10.0 mi SSW 9.2 mph - N/A   Clear
3:35 AM 50.0 °F 37.4 °F 62% 29.81 in 10.0 mi SSW 8.1 mph - N/A   Clear
3:55 AM 50.0 °F 37.4 °F 62% 29.81 in 10.0 mi SSW 9.2 mph - N/A   Clear
4:15 AM 50.0 °F 37.4 °F 62% 29.80 in 10.0 mi SSW 8.1 mph - N/A   Clear
4:35 AM 50.0 °F 37.4 °F 62% 29.80 in 10.0 mi SSW 6.9 mph - N/A   Clear
5:00 AM 50.0 °F 37.4 °F 62% 29.80 in 10.0 mi SSW 8.1 mph - N/A   Clear
5:15 AM 50.0 °F 37.4 °F 62% 29.79 in 10.0 mi SSW 8.1 mph - N/A   Clear
5:35 AM 50.0 °F 39.2 °F 66% 29.79 in 10.0 mi SSW 8.1 mph - N/A   Clear
5:55 AM 50.0 °F 39.2 °F 66% 29.79 in 10.0 mi SSW 8.1 mph - N/A   Clear
6:15 AM 50.0 °F 39.2 °F 66% 29.79 in 10.0 mi SSW 8.1 mph - N/A   Clear
6:35 AM 48.2 °F 39.2 °F 71% 29.80 in 10.0 mi SSW 6.9 mph - N/A   Clear
6:55 AM 50.0 °F 39.2 °F 66% 29.80 in 10.0 mi SSW 6.9 mph - N/A   Clear
7:15 AM 48.2 °F 39.2 °F 71% 29.80 in 10.0 mi SSW 6.9 mph - N/A   Clear
7:35 AM 48.2 °F 39.2 °F 71% 29.79 in 10.0 mi SSW 8.1 mph - N/A   Clear
7:55 AM 48.2 °F 39.2 °F 71% 29.79 in 10.0 mi SSW 8.1 mph - N/A   Clear
8:15 AM 48.2 °F 39.2 °F 71% 29.79 in 10.0 mi SSW 9.2 mph - N/A   Clear
8:35 AM 48.2 °F 39.2 °F 71% 29.79 in 10.0 mi SSW 8.1 mph - N/A   Clear
8:55 AM 50.0 °F 41.0 °F 71% 29.79 in 10.0 mi SSW 9.2 mph - N/A   Clear
9:15 AM 51.8 °F 41.0 °F 67% 29.79 in 10.0 mi SSW 10.4 mph - N/A   Clear
9:40 AM 53.6 °F 41.0 °F 62% 29.79 in 10.0 mi SSW 9.2 mph - N/A   Clear
9:55 AM 53.6 °F 41.0 °F 62% 29.80 in 10.0 mi SSW 9.2 mph - N/A   Clear
10:15 AM 53.6 °F 42.8 °F 67% 29.80 in 10.0 mi SSW 10.4 mph - N/A   Clear
10:35 AM 55.4 °F 42.8 °F 63% 29.80 in 10.0 mi SW 12.7 mph - N/A   Clear
10:55 AM 57.2 °F 42.8 °F 59% 29.80 in 10.0 mi SSW 11.5 mph 17.3 mph N/A   Clear
11:15 AM 59.0 °F 42.8 °F 55% 29.80 in 10.0 mi SW 12.7 mph 17.3 mph N/A   Clear
11:35 AM 59.0 °F 42.8 °F 55% 29.79 in 10.0 mi SW 10.4 mph - N/A   Clear
11:55 AM 60.8 °F 42.8 °F 52% 29.78 in 10.0 mi SW 9.2 mph - N/A   Clear
12:15 PM 62.6 °F 42.8 °F 48% 29.77 in 10.0 mi SW 9.2 mph - N/A   Clear
12:35 PM 64.4 °F 42.8 °F 45% 29.77 in 10.0 mi SW 11.5 mph - N/A   Clear
12:55 PM 66.2 °F 41.0 °F 40% 29.76 in 10.0 mi SW 8.1 mph - N/A   Clear
1:15 PM 66.2 °F 41.0 °F 40% 29.75 in 10.0 mi SW 8.1 mph - N/A   Clear
1:35 PM 68.0 °F 39.2 °F 35% 29.74 in 10.0 mi SSW 11.5 mph - N/A   Clear
1:55 PM 69.8 °F 39.2 °F 33% 29.74 in 10.0 mi WSW 9.2 mph - N/A   Clear
2:15 PM 69.8 °F 37.4 °F 31% 29.73 in 10.0 mi SW 10.4 mph 18.4 mph N/A   Clear
2:35 PM 71.6 °F 37.4 °F 29% 29.72 in 10.0 mi SW 13.8 mph 19.6 mph N/A   Clear
2:55 PM 71.6 °F 37.4 °F 29% 29.71 in 10.0 mi WSW 12.7 mph 17.3 mph N/A   Clear
3:15 PM 71.6 °F 35.6 °F 27% 29.70 in 10.0 mi SW 13.8 mph 18.4 mph N/A   Clear
3:35 PM 73.4 °F 35.6 °F 25% 29.69 in 10.0 mi WSW 9.2 mph 16.1 mph N/A   Clear
3:55 PM 73.4 °F 35.6 °F 25% 29.69 in 10.0 mi SW 17.3 mph 20.7 mph N/A   Clear
4:15 PM 73.4 °F 33.8 °F 23% 29.69 in 10.0 mi WSW 8.1 mph 20.7 mph N/A   Clear
4:35 PM 73.4 °F 35.6 °F 25% 29.68 in 10.0 mi SW 11.5 mph - N/A   Clear
4:55 PM 73.4 °F 33.8 °F 23% 29.68 in 10.0 mi WSW 11.5 mph 17.3 mph N/A   Clear
5:15 PM 73.4 °F 33.8 °F 23% 29.67 in 10.0 mi WSW 10.4 mph - N/A   Clear
5:35 PM 73.4 °F 33.8 °F 23% 29.66 in 10.0 mi SW 6.9 mph 16.1 mph N/A   Clear
5:55 PM 73.4 °F 33.8 °F 23% 29.66 in 10.0 mi WSW 10.4 mph - N/A   Clear
6:15 PM 73.4 °F 33.8 °F 23% 29.65 in 10.0 mi WSW 10.4 mph 16.1 mph N/A   Clear
6:35 PM 71.6 °F 33.8 °F 25% 29.65 in 10.0 mi WSW 8.1 mph - N/A   Clear
6:55 PM 71.6 °F 35.6 °F 27% 29.65 in 10.0 mi SW 8.1 mph - N/A   Clear
7:15 PM 69.8 °F 35.6 °F 28% 29.65 in 10.0 mi South 8.1 mph - N/A   Clear
7:35 PM 68.0 °F 35.6 °F 30% 29.65 in 10.0 mi SSW 6.9 mph - N/A   Clear
7:55 PM 68.0 °F 35.6 °F 30% 29.65 in 10.0 mi South 5.8 mph - N/A   Clear
8:15 PM 66.2 °F 33.8 °F 30% 29.65 in 10.0 mi South 5.8 mph - N/A   Clear
8:35 PM 66.2 °F 35.6 °F 32% 29.65 in 10.0 mi South 6.9 mph - N/A   Clear
8:55 PM 66.2 °F 35.6 °F 32% 29.65 in 10.0 mi SSW 5.8 mph - N/A   Scattered Clouds
9:15 PM 66.2 °F 35.6 °F 32% 29.66 in 10.0 mi SSW 6.9 mph - N/A   Scattered Clouds
9:35 PM 64.4 °F 35.6 °F 34% 29.65 in 10.0 mi SSW 6.9 mph - N/A   Scattered Clouds
9:55 PM 64.4 °F 35.6 °F 34% 29.65 in 10.0 mi SSW 5.8 mph - N/A   Scattered Clouds
10:15 PM 64.4 °F 35.6 °F 34% 29.64 in 10.0 mi SSW 5.8 mph - N/A   Overcast
10:35 PM 64.4 °F 37.4 °F 37% 29.64 in 10.0 mi SSW 6.9 mph - N/A   Mostly Cloudy
10:55 PM 64.4 °F 39.2 °F 40% 29.63 in 10.0 mi SSW 5.8 mph - N/A   Mostly Cloudy
11:15 PM 64.4 °F 39.2 °F 40% 29.63 in 10.0 mi SSW 6.9 mph - N/A   Overcast
11:35 PM 64.4 °F 39.2 °F 40% 29.62 in 10.0 mi South 8.1 mph - N/A   Overcast
11:55 PM 62.6 °F 42.8 °F 48% 29.61 in 10.0 mi South 10.4 mph - N/A   Mostly Cloudy